This is the latest recevied weather packets stored in our database for station/object SQ7KHZ-10. If no packets are shown the sender has not sent any weather packets the latest 10 day(s).
| Time | Temp. | Humidity | Pressure | Rain* | Wind** | Luminosity | Snow |
|---|---|---|---|---|---|---|---|
| 1777522437 | -2.78° C | 88% | 1030.3 hPa | 0 mm | - | - | - |
| 1777521225 | -2.78° C | 86% | 1030 hPa | 0 mm | - | - | - |
| 1777520024 | -3.33° C | 89% | 1030.1 hPa | 0 mm | - | - | - |
| 1777518824 | -3.89° C | 91% | 1030 hPa | 0 mm | - | - | - |
| 1777517588 | -3.33° C | 90% | 1030.2 hPa | 0 mm | - | - | - |
| 1777516376 | -3.89° C | 90% | 1030.1 hPa | 0 mm | - | - | - |
| 1777515164 | -3.33° C | 90% | 1030.2 hPa | 0 mm | - | - | - |
| 1777513964 | -3.33° C | 90% | 1030.1 hPa | 0 mm | - | - | - |
| 1777512752 | -2.78° C | 89% | 1030 hPa | 0 mm | - | - | - |
| 1777511552 | -3.33° C | 89% | 1029.8 hPa | 0 mm | - | - | - |
| 1777510340 | -2.78° C | 89% | 1029.9 hPa | 0 mm | - | - | - |
| 1777509116 | -2.78° C | 88% | 1029.9 hPa | 0 mm | - | - | - |
| 1777507916 | -2.78° C | 87% | 1029.8 hPa | 0 mm | - | - | - |
| 1777506704 | -2.78° C | 89% | 1029.9 hPa | 0 mm | - | - | - |
| 1777505492 | -2.22° C | 87% | 1030 hPa | 0 mm | - | - | - |
| 1777504280 | -2.22° C | 86% | 1030 hPa | 0 mm | - | - | - |
| 1777503080 | -1.11° C | 85% | 1029.9 hPa | 0 mm | - | - | - |
| 1777501880 | -1.11° C | 83% | 1030 hPa | 0 mm | - | - | - |
| 1777500680 | -0.56° C | 83% | 1029.8 hPa | 0 mm | - | - | - |
| 1777499468 | -0.56° C | 82% | 1029.7 hPa | 0 mm | - | - | - |
| 1777498256 | -0.56° C | 81% | 1029.7 hPa | 0 mm | - | - | - |
| 1777497044 | -0.56° C | 80% | 1029.6 hPa | 0 mm | - | - | - |
| 1777495844 | 0° C | 83% | 1029.4 hPa | 0 mm | - | - | - |
| 1777494620 | 0.56° C | 79% | 1029.3 hPa | 0 mm | - | - | - |
| 1777493420 | 0.56° C | 77% | 1029.3 hPa | 0 mm | - | - | - |
* Rain latest hour (hover to see other rain measurements)
** Current wind speed in m/s (hover to see current wind gust speed)